Regional Weather Roundup
Issued by NWS Cleveland, OH

Home | Current Version | Previous Version | Graphics & Text | Print | Product List | Glossary On
Versions: 1 2 3 4 5 6 7 8 9 10 11 12 13 14 15 16 17 18 19 20 21 22 23 24 25 26 27 28 29 30 31 32 33 34 35 36 37 38 39 40 41 42 43 44 45 46 47 48 49 50
000
ASUS41 KCLE 241302
RWRCLE
OHIO REGIONAL WEATHER ROUNDUP
NATIONAL WEATHER SERVICE CLEVELAND, OH
900 AM EDT MON APR 24 2017

NOTE: "FAIR" INDICATES FEW OR NO CLOUDS BELOW 12,000 FEET WITH NO
SIGNIFICANT WEATHER AND/OR OBSTRUCTIONS TO VISIBILITY.

OHZ001>008-015>018-024>027-034-035-043-044-241400-
   NORTHWEST OHIO

CITY           SKY/WX    TMP DP  RH WIND       PRES   REMARKS
DEFIANCE       SUNNY     48  38  68 NE8       30.05R
FINDLAY        SUNNY     53  36  52 NE13      30.02S
TOLEDO EXPRESS SUNNY     50  39  66 NE9       30.05S
TOLEDO EXEC    SUNNY     52  44  74 NE10G17   30.07R
LIMA           SUNNY     51  33  50 NE10      30.01R
$$

OHZ009>014-019>023-028>033-038-089-241400-
   NORTHEAST OHIO

CITY           SKY/WX    TMP DP  RH WIND       PRES   REMARKS
CLE-HOPKINS    SUNNY     57  32  38 NE8       30.07S
CLE-LAKEFRONT  SUNNY     52  37  56 NE12      30.05R
CUY CO. ARPT   SUNNY     59  34  38 E8        30.06S
LORAIN-ELYRIA  SUNNY     52  39  61 NE10      30.05R
ASHTABULA      SUNNY     53  31  42 E6        30.09S
AKRON-CANTON   MOSUNNY   56  36  47 E9        30.04R
WOOSTER        SUNNY     53  37  54 E9        30.04R
MANSFIELD      SUNNY     55  32  41 E10       30.02R
YOUNGSTOWN     MOSUNNY   55  35  47 E10       30.06S
$$

OHZ042-051>053-060>062-070>072-077>081-241400-
  SOUTHWEST OHIO

CITY           SKY/WX    TMP DP  RH WIND       PRES   REMARKS
CINC-COVINGTON MOSUNNY   54  38  54 NE13      29.93S
CINC-LUNKEN    SUNNY     54  43  66 NE6       29.95R
HAMILTON       SUNNY     54  40  59 NE10      29.97R
DAYTON         MOSUNNY   55  36  48 NE10      29.98S
WRIGHT-PAT AFB SUNNY     55  37  50 NE10      29.97S
DAYTON GENERAL SUNNY     54  37  52 NE14G21   29.95R
WILMINGTON     SUNNY     52  40  63 NE14      29.95S
$$

OHZ036-037-039>041-045>050-054>059-063>069-073>076-082>088-241400-
  CENTRAL AND SOUTHEAST OHIO

CITY           SKY/WX    TMP DP  RH WIND       PRES   REMARKS
COLUMBUS       MOSUNNY   56  39  53 E10       29.96F
OSU AIRPORT    SUNNY     56  39  53 NE14      29.97F
BOLTON FIELD   SUNNY     54  37  54 NE9G16    29.97S
RICKENBACK AFB MOSUNNY   54  40  58 E10       29.96R
NEWARK         SUNNY     56  37  49 NE8       29.97F
MARION         SUNNY     56  35  45 E9        30.01S
LANCASTER      SUNNY     57  39  51 NE12G18   29.97S
ZANESVILLE     SUNNY     56  38  50 NE9       29.98S
NEW PHILLY     NOT AVBL
$$




USA.gov is the U.S. government's official web portal to all federal, state and local government web resources and services.